Terminal Aerodrome Forecast
Issued by NWS Blacksburg, VA

Current Version | Previous Version | Text Only | Print | Product List | Glossary Off
Versions: 1 2 3 4 5 6 7 8 9 10 11 12 13 14 15 16 17 18 19 20 21 22 23 24 25 26 27 28 29 30 31 32 33 34 35 36 37 38 39 40 41 42 43 44 45 46 47 48 49 50

000
FTUS41 KRNK 260540
TAFBLF
TAF
KBLF 260540Z 2606/2706 16004KT P6SM OVC050 WS012/20034KT
     FM260900 19006KT P6SM OVC006
     FM261500 24015G25KT P6SM OVC025
     FM262100 25010G22KT 6SM -SHRA OVC040
     FM270100 31010G18KT 4SM -SHRA OVC015=

USA.gov is the U.S. government's official web portal to all federal, state and local government web resources and services.